Tracking 33747 objects as of 12-Apr-2026
HD Live streaming from Space Station
objects crossing your sky now

STARLINK-35865

Track STARLINK-35865 now!
10-day predictions
STARLINK-35865 is classified as:


NORAD ID: 67826
Int'l Code: 2026-033F
Perigee: 489.6 km
Apogee: 490.8 km
Inclination: 43.0 °
Period: 94.3 minutes
Semi major axis: 6861 km
RCS: Unknown
Launch date: February 16, 2026
Source: United States (US)
Launch site: AIR FORCE EASTERN TEST RANGE (AFETR)
Your satellite tracking list
Your tracking list is empty




NASA's NSSDC Master Catalog

Two Line Element Set (TLE):
1 67826U 26033F   26101.64003640  .00015780  00000-0  58175-3 0  9996
2 67826  43.0024  80.9328 0000900 281.0224  79.0526 15.27577802  9712
Source of the keplerian elements: AFSPC